Home   Weather   Fairfield Bay   Past weeks
Flag for USA

Past Weather in Fairfield Bay, Arkansas, USA — Yesterday and Last 2 Weeks

Now
36 °F

Overcast.


Feels Like: 30 °F
Forecast: 39 / 33 °F
Wind: 8 mph from East

Location: Batesville Regional Airport

Current Time: Dec 15, 2019 at 6:52:29 am

Latest Report: Dec 15, 2019 at 5:56 am


Visibility: 7 mi

Pressure: 30.04 "Hg

Humidity: 85%

Dew Point: 32 °F

Location of Fairfield BayLocation

Past Weather in Fairfield Bay — Graph

°F

Fairfield Bay Temperature Yesterday

Maximum temperature yesterday: 52 °F (at 2:22 pm)
Minimum temperature yesterday: 35 °F (at 12:56 am)
Average temperature yesterday: 43 °F

High & Low Weather Summary for the Past Weeks

 TemperatureHumidityPressure
High69 °F (Nov 30, 2:56 pm)100% (Nov 30, 11:03 am)30.59 "Hg (Nov 30, 11:03 am)
Low24 °F (Dec 11, 6:56 am)28% (Dec 4, 1:56 pm)29.56 "Hg (Nov 30, 4:56 pm)
Average45 °F72%30.06 "Hg
* Reported Nov 30 4:22 am — Dec 15 4:56 am, Fairfield Bay. Weather by CustomWeather, © 2019

Note: Actual official high and low records may vary slightly from our data, if they occured in-between our weather recording intervals... More about our weather records

Fairfield Bay Weather History for the Previous 24 Hours

Scroll right to see more
 ConditionsComfort  
Time TempWeatherWind HumidityBarometerVisibility
4:56 am
Sun, Dec 15
36 °FOvercast.6 mph85%30.02 "Hg7 mi
4:03 am36 °FOvercast.3 mph87%30.02 "Hg7 mi
3:27 am36 °FOvercast.5 mph87%30.04 "Hg7 mi
2:56 am36 °FOvercast.No wind85%30.04 "Hg7 mi
1:56 am36 °FPassing clouds.3 mph89%30.03 "Hg7 mi
12:56 am36 °FClear.No wind89%30.03 "Hg7 mi
11:56 pm
Sat, Dec 14
37 °FClear.No wind86%30.03 "Hg7 mi
10:56 pm38 °FClear.No wind83%30.02 "Hg8 mi
9:56 pm39 °FPassing clouds.5 mph82%30.01 "Hg8 mi
8:56 pm40 °FPassing clouds.6 mph80%29.98 "Hg9 mi
7:56 pm41 °FClear.3 mph80%29.96 "Hg10 mi
6:56 pm43 °FClear.5 mph76%29.94 "Hg10 mi
5:56 pm46 °FClear.3 mph71%29.92 "Hg10 mi
4:56 pm48 °FPassing clouds.3 mph68%29.90 "Hg10 mi
3:56 pm50 °FSunny.3 mph63%29.87 "Hg10 mi
2:56 pm51 °FSunny.7 mph61%29.88 "Hg10 mi
2:22 pm52 °FPartly sunny.5 mph58%29.86 "Hg10 mi
1:56 pm51 °FOvercast.6 mph61%29.87 "Hg10 mi
12:56 pm49 °FOvercast.9 mph66%29.87 "Hg10 mi
11:56 am49 °FOvercast.10 mph69%29.86 "Hg10 mi
10:56 am48 °FOvercast.8 mph74%29.87 "Hg10 mi
9:56 am45 °FOvercast.9 mph82%29.86 "Hg10 mi
8:56 am44 °FOvercast.8 mph85%29.85 "Hg9 mi
8:25 am41 °FPartly sunny.7 mph93%29.83 "Hg10 mi
7:56 am41 °FSunny.5 mph93%29.81 "Hg10 mi
6:56 am39 °FClear.5 mph96%29.80 "Hg10 mi
Weather by CustomWeather, © 2019

See weather overview

Advertising